Time,TemperatureF,DewpointF,PressureIn,WindDirection,WindDirectionDegrees,WindSpeedMPH,WindSpeedGustMPH,Humidity,HourlyPrecipIn,Conditions,Clouds,dailyrainin,SoftwareType,DateUTC
2013-06-18 00:00:00,70.3,60.1,30.00,North,10,4.0,29.0,70,0.00,,,0.08,Wunderground v.1.15,2013-06-18 05:00:00,
2013-06-18 00:05:00,70.0,60.2,30.00,North,10,4.0,29.0,71,0.00,,,0.08,Wunderground v.1.15,2013-06-18 05:05:00,
2013-06-18 00:10:00,69.5,59.7,30.00,North,10,4.0,29.0,71,0.00,,,0.08,Wunderground v.1.15,2013-06-18 05:10:00,
2013-06-18 00:15:00,69.4,59.6,30.00,North,10,4.0,29.0,71,0.00,,,0.08,Wunderground v.1.15,2013-06-18 05:15:00,
2013-06-18 00:20:00,69.2,59.4,30.00,North,10,4.0,29.0,71,0.00,,,0.08,Wunderground v.1.15,2013-06-18 05:20:00,
2013-06-18 00:30:00,69.5,58.9,29.99,North,10,6.0,29.0,69,0.00,,,0.08,Wunderground v.1.15,2013-06-18 05:30:00,
2013-06-18 00:35:00,69.8,58.8,30.00,North,10,6.0,29.0,68,0.00,,,0.08,Wunderground v.1.15,2013-06-18 05:35:00,
2013-06-18 00:40:00,69.8,58.8,30.00,North,10,5.0,29.0,68,0.00,,,0.08,Wunderground v.1.15,2013-06-18 05:40:00,
2013-06-18 00:45:00,69.6,58.6,30.00,North,10,5.0,29.0,68,0.00,,,0.08,Wunderground v.1.15,2013-06-18 05:45:00,
2013-06-18 00:50:00,69.2,58.6,30.00,North,10,4.0,4.0,69,0.00,,,0.08,Wunderground v.1.15,2013-06-18 05:50:00,
2013-06-18 00:55:00,68.8,58.6,30.00,North,10,4.0,29.0,70,0.00,,,0.08,Wunderground v.1.15,2013-06-18 05:55:00,
2013-06-18 01:05:00,68.9,58.3,30.00,North,10,6.0,29.0,69,0.00,,,0.00,Wunderground v.1.15,2013-06-18 06:05:00,
2013-06-18 01:10:00,68.8,58.2,30.01,North,10,5.0,5.0,69,0.00,,,0.00,Wunderground v.1.15,2013-06-18 06:10:00,
2013-06-18 01:15:00,68.8,58.2,30.01,North,10,3.0,29.0,69,0.00,,,0.00,Wunderground v.1.15,2013-06-18 06:15:00,
2013-06-18 01:20:00,68.6,58.0,30.01,North,10,3.0,3.0,69,0.00,,,0.00,Wunderground v.1.15,2013-06-18 06:20:00,
2013-06-18 01:25:00,68.6,58.0,30.01,North,10,3.0,29.0,69,0.00,,,0.00,Wunderground v.1.15,2013-06-18 06:25:00,
2013-06-18 01:30:00,68.5,57.5,30.01,North,10,2.0,29.0,68,0.00,,,0.00,Wunderground v.1.15,2013-06-18 06:30:00,
2013-06-18 01:35:00,68.5,57.9,30.01,North,10,2.0,29.0,69,0.00,,,0.00,Wunderground v.1.15,2013-06-18 06:35:00,
2013-06-18 01:40:00,68.5,57.5,30.01,North,10,2.0,29.0,68,0.00,,,0.00,Wunderground v.1.15,2013-06-18 06:40:00,
2013-06-18 01:45:00,68.4,57.4,30.01,North,10,2.0,29.0,68,0.00,,,0.00,Wunderground v.1.15,2013-06-18 06:45:00,
2013-06-18 01:50:00,68.4,57.4,30.01,North,10,3.0,3.0,68,0.00,,,0.00,Wunderground v.1.15,2013-06-18 06:50:00,
2013-06-18 01:55:00,68.2,57.2,30.02,North,10,3.0,29.0,68,0.00,,,0.00,Wunderground v.1.15,2013-06-18 06:55:00,
2013-06-18 02:05:00,67.9,56.9,30.02,North,10,2.0,29.0,68,0.00,,,0.00,Wunderground v.1.15,2013-06-18 07:05:00,
2013-06-18 02:10:00,67.8,56.9,30.02,North,10,2.0,29.0,68,0.00,,,0.00,Wunderground v.1.15,2013-06-18 07:10:00,
2013-06-18 02:15:00,67.6,56.7,30.02,North,10,2.0,29.0,68,0.00,,,0.00,Wunderground v.1.15,2013-06-18 07:15:00,
2013-06-18 02:20:00,67.5,57.0,30.01,North,10,2.0,29.0,69,0.00,,,0.00,Wunderground v.1.15,2013-06-18 07:20:00,
2013-06-18 02:25:00,67.3,57.2,30.01,North,10,3.0,29.0,70,0.00,,,0.00,Wunderground v.1.15,2013-06-18 07:25:00,
2013-06-18 02:30:00,66.8,57.9,30.02,North,10,3.0,3.0,73,0.00,,,0.00,Wunderground v.1.15,2013-06-18 07:30:00,
2013-06-18 02:40:00,65.9,57.7,30.01,North,10,2.0,29.0,75,0.00,,,0.00,Wunderground v.1.15,2013-06-18 07:40:00,
2013-06-18 02:45:00,65.5,57.7,30.01,North,10,2.0,29.0,76,0.00,,,0.00,Wunderground v.1.15,2013-06-18 07:45:00,
2013-06-18 02:50:00,65.2,57.4,30.01,North,10,1.0,29.0,76,0.00,,,0.00,Wunderground v.1.15,2013-06-18 07:50:00,
2013-06-18 02:55:00,64.9,57.5,30.01,North,10,1.0,29.0,77,0.00,,,0.00,Wunderground v.1.15,2013-06-18 07:55:00,
2013-06-18 03:00:00,64.6,57.2,30.01,North,10,1.0,29.0,77,0.00,,,0.00,Wunderground v.1.15,2013-06-18 08:00:00,
2013-06-18 03:10:00,64.8,56.7,30.01,North,10,2.0,29.0,75,0.00,,,0.00,Wunderground v.1.15,2013-06-18 08:10:00,
2013-06-18 03:15:00,65.2,56.7,30.01,North,10,2.0,29.0,74,0.00,,,0.00,Wunderground v.1.15,2013-06-18 08:15:00,
2013-06-18 03:20:00,65.6,56.7,30.01,North,10,2.0,29.0,73,0.00,,,0.00,Wunderground v.1.15,2013-06-18 08:20:00,
2013-06-18 03:25:00,65.1,57.0,30.01,North,10,2.0,29.0,75,0.00,,,0.00,Wunderground v.1.15,2013-06-18 08:25:00,
2013-06-18 03:30:00,64.4,56.7,30.01,North,10,3.0,29.0,76,0.00,,,0.00,Wunderground v.1.15,2013-06-18 08:30:00,
2013-06-18 03:35:00,64.3,56.6,30.01,North,10,3.0,29.0,76,0.00,,,0.00,Wunderground v.1.15,2013-06-18 08:35:00,
2013-06-18 03:45:00,64.4,56.3,30.01,North,10,1.0,29.0,75,0.00,,,0.00,Wunderground v.1.15,2013-06-18 08:45:00,
2013-06-18 03:50:00,64.7,56.2,30.01,North,10,0.0,29.0,74,0.00,,,0.00,Wunderground v.1.15,2013-06-18 08:50:00,
2013-06-18 03:55:00,65.0,56.1,30.01,North,10,1.0,29.0,73,0.00,,,0.00,Wunderground v.1.15,2013-06-18 08:55:00,
2013-06-18 04:00:00,64.9,56.4,30.01,North,10,1.0,29.0,74,0.00,,,0.00,Wunderground v.1.15,2013-06-18 09:00:00,
2013-06-18 04:05:00,64.5,56.4,30.01,North,10,2.0,29.0,75,0.00,,,0.00,Wunderground v.1.15,2013-06-18 09:05:00,
2013-06-18 04:15:00,63.8,56.1,30.01,North,10,2.0,29.0,76,0.00,,,0.00,Wunderground v.1.15,2013-06-18 09:15:00,
2013-06-18 04:20:00,63.6,55.9,30.01,North,10,1.0,1.0,76,0.00,,,0.00,Wunderground v.1.15,2013-06-18 09:20:00,
2013-06-18 04:25:00,64.0,56.3,30.01,North,10,0.0,29.0,76,0.00,,,0.00,Wunderground v.1.15,2013-06-18 09:25:00,
2013-06-18 04:30:00,64.2,56.1,30.00,North,10,0.0,29.0,75,0.00,,,0.00,Wunderground v.1.15,2013-06-18 09:30:00,
2013-06-18 04:35:00,64.2,56.5,30.00,North,10,0.0,29.0,76,0.00,,,0.00,Wunderground v.1.15,2013-06-18 09:35:00,
2013-06-18 04:40:00,64.1,56.4,30.00,North,10,0.0,29.0,76,0.00,,,0.00,Wunderground v.1.15,2013-06-18 09:40:00,
2013-06-18 04:50:00,63.9,56.2,30.00,North,10,1.0,1.0,76,0.00,,,0.00,Wunderground v.1.15,2013-06-18 09:50:00,
2013-06-18 04:55:00,63.7,56.0,30.00,North,10,0.0,29.0,76,0.00,,,0.00,Wunderground v.1.15,2013-06-18 09:55:00,
2013-06-18 05:00:00,63.6,57.0,30.00,North,10,0.0,29.0,79,0.00,,,0.00,Wunderground v.1.15,2013-06-18 10:00:00,
2013-06-18 05:05:00,62.8,57.2,30.00,North,10,1.0,29.0,82,0.00,,,0.00,Wunderground v.1.15,2013-06-18 10:05:00,
2013-06-18 05:10:00,61.8,56.9,30.00,North,10,2.0,29.0,84,0.00,,,0.00,Wunderground v.1.15,2013-06-18 10:10:00,
2013-06-18 05:20:00,60.4,56.5,30.01,North,10,4.0,4.0,87,0.00,,,0.00,Wunderground v.1.15,2013-06-18 10:20:00,
2013-06-18 05:25:00,60.3,56.7,30.00,North,10,4.0,29.0,88,0.00,,,0.00,Wunderground v.1.15,2013-06-18 10:25:00,
2013-06-18 05:30:00,60.2,56.6,30.01,North,10,3.0,3.0,88,0.00,,,0.00,Wunderground v.1.15,2013-06-18 10:30:00,
2013-06-18 05:35:00,60.3,56.4,30.01,North,10,2.0,29.0,87,0.00,,,0.00,Wunderground v.1.15,2013-06-18 10:35:00,
2013-06-18 05:40:00,60.8,56.3,30.01,North,10,2.0,29.0,85,0.00,,,0.00,Wunderground v.1.15,2013-06-18 10:40:00,
2013-06-18 05:45:00,61.1,56.2,30.00,North,10,2.0,29.0,84,0.00,,,0.00,Wunderground v.1.15,2013-06-18 10:45:00,
2013-06-18 05:50:00,61.6,55.7,30.01,North,10,2.0,2.0,81,0.00,,,0.00,Wunderground v.1.15,2013-06-18 10:50:00,
2013-06-18 05:55:00,62.0,55.8,30.01,North,10,2.0,29.0,80,0.00,,,0.00,Wunderground v.1.15,2013-06-18 10:55:00,
2013-06-18 06:00:00,62.3,55.7,30.01,North,10,2.0,29.0,79,0.00,,,0.00,Wunderground v.1.15,2013-06-18 11:00:00,
2013-06-18 06:05:00,62.2,55.6,30.01,North,10,2.0,29.0,79,0.00,,,0.00,Wunderground v.1.15,2013-06-18 11:05:00,
2013-06-18 06:10:00,62.2,56.0,30.00,North,10,2.0,2.0,80,0.00,,,0.00,Wunderground v.1.15,2013-06-18 11:10:00,
2013-06-18 06:15:00,61.9,56.0,30.00,North,10,2.0,29.0,81,0.00,,,0.00,Wunderground v.1.15,2013-06-18 11:15:00,
2013-06-18 06:25:00,61.9,55.7,30.01,North,10,2.0,29.0,80,0.00,,,0.00,Wunderground v.1.15,2013-06-18 11:25:00,
2013-06-18 06:30:00,62.3,55.4,30.01,North,10,3.0,29.0,78,0.00,,,0.00,Wunderground v.1.15,2013-06-18 11:30:00,
2013-06-18 06:35:00,63.1,55.8,30.01,North,10,3.0,29.0,77,0.00,,,0.00,Wunderground v.1.15,2013-06-18 11:35:00,
2013-06-18 06:40:00,63.4,55.7,30.02,North,10,3.0,3.0,76,0.00,,,0.00,Wunderground v.1.15,2013-06-18 11:40:00,
2013-06-18 06:45:00,63.7,56.0,30.01,North,10,2.0,29.0,76,0.00,,,0.00,Wunderground v.1.15,2013-06-18 11:45:00,
2013-06-18 06:55:00,63.5,55.4,30.02,North,10,1.0,29.0,75,0.00,,,0.00,Wunderground v.1.15,2013-06-18 11:55:00,
2013-06-18 07:00:00,63.9,56.9,30.02,North,10,1.0,1.0,78,0.00,,,0.00,Wunderground v.1.15,2013-06-18 12:00:00,
2013-06-18 07:05:00,64.1,56.7,30.02,North,10,0.0,29.0,77,0.00,,,0.00,Wunderground v.1.15,2013-06-18 12:05:00,
2013-06-18 07:10:00,63.9,56.5,30.02,North,10,0.0,29.0,77,0.00,,,0.00,Wunderground v.1.15,2013-06-18 12:10:00,
2013-06-18 07:15:00,64.0,55.9,30.02,North,10,0.0,29.0,75,0.00,,,0.00,Wunderground v.1.15,2013-06-18 12:15:00,
2013-06-18 07:20:00,64.3,56.6,30.02,North,10,1.0,29.0,76,0.00,,,0.00,Wunderground v.1.15,2013-06-18 12:20:00,
2013-06-18 07:30:00,64.9,56.4,30.02,North,10,1.0,29.0,74,0.00,,,0.00,Wunderground v.1.15,2013-06-18 12:30:00,
2013-06-18 07:35:00,65.0,56.9,30.02,North,10,2.0,29.0,75,0.00,,,0.00,Wunderground v.1.15,2013-06-18 12:35:00,
2013-06-18 07:40:00,65.0,56.9,30.02,North,10,2.0,29.0,75,0.00,,,0.00,Wunderground v.1.15,2013-06-18 12:40:00,
2013-06-18 07:45:00,65.2,56.3,30.02,North,10,3.0,29.0,73,0.00,,,0.00,Wunderground v.1.15,2013-06-18 12:45:00,
2013-06-18 07:50:00,65.5,57.4,30.02,North,10,3.0,3.0,75,0.00,,,0.00,Wunderground v.1.15,2013-06-18 12:50:00,
2013-06-18 08:00:00,65.6,57.5,30.02,North,10,2.0,29.0,75,0.00,,,0.00,Wunderground v.1.15,2013-06-18 13:00:00,
2013-06-18 08:05:00,65.8,57.3,30.02,North,10,1.0,29.0,74,0.00,,,0.00,Wunderground v.1.15,2013-06-18 13:05:00,
2013-06-18 08:10:00,65.9,57.0,30.02,North,10,2.0,29.0,73,0.00,,,0.00,Wunderground v.1.15,2013-06-18 13:10:00,
2013-06-18 08:15:00,66.0,57.5,30.02,North,10,1.0,29.0,74,0.00,,,0.00,Wunderground v.1.15,2013-06-18 13:15:00,
2013-06-18 08:20:00,66.3,57.8,30.02,North,10,1.0,29.0,74,0.00,,,0.00,Wunderground v.1.15,2013-06-18 13:20:00,
2013-06-18 08:25:00,66.5,57.6,30.02,North,10,2.0,29.0,73,0.00,,,0.00,Wunderground v.1.15,2013-06-18 13:25:00,
2013-06-18 08:35:00,66.9,59.5,30.03,North,10,1.0,29.0,77,0.00,,,0.00,Wunderground v.1.15,2013-06-18 13:35:00,
2013-06-18 08:40:00,67.0,59.2,30.04,North,10,2.0,29.0,76,0.00,,,0.00,Wunderground v.1.15,2013-06-18 13:40:00,
2013-06-18 08:45:00,66.8,58.2,30.04,North,10,3.0,29.0,74,0.00,,,0.00,Wunderground v.1.15,2013-06-18 13:45:00,
2013-06-18 08:50:00,66.9,58.7,30.04,North,10,3.0,29.0,75,0.00,,,0.00,Wunderground v.1.15,2013-06-18 13:50:00,
2013-06-18 08:55:00,67.1,58.2,30.04,North,10,2.0,29.0,73,0.00,,,0.00,Wunderground v.1.15,2013-06-18 13:55:00,
2013-06-18 09:05:00,67.9,58.5,30.04,North,10,2.0,29.0,72,0.00,,,0.00,Wunderground v.1.15,2013-06-18 14:05:00,
2013-06-18 09:10:00,68.4,57.8,30.04,North,10,3.0,29.0,69,0.00,,,0.00,Wunderground v.1.15,2013-06-18 14:10:00,
2013-06-18 09:15:00,68.9,58.3,30.04,North,10,3.0,29.0,69,0.00,,,0.00,Wunderground v.1.15,2013-06-18 14:15:00,
2013-06-18 09:20:00,69.2,59.0,30.04,North,10,4.0,4.0,70,0.00,,,0.00,Wunderground v.1.15,2013-06-18 14:20:00,
2013-06-18 09:25:00,69.7,59.1,30.04,North,10,3.0,6.0,69,0.00,,,0.00,Wunderground v.1.15,2013-06-18 14:25:00,
2013-06-18 09:30:00,69.8,58.3,30.04,North,10,4.0,29.0,67,0.00,,,0.00,Wunderground v.1.15,2013-06-18 14:30:00,
2013-06-18 09:35:00,70.4,58.9,30.04,North,10,5.0,29.0,67,0.00,,,0.00,Wunderground v.1.15,2013-06-18 14:35:00,
2013-06-18 09:40:00,71.0,58.6,30.04,North,10,5.0,29.0,65,0.00,,,0.00,Wunderground v.1.15,2013-06-18 14:40:00,
2013-06-18 09:45:00,71.4,57.7,30.04,NNE,17,6.0,29.0,62,0.00,,,0.00,Wunderground v.1.15,2013-06-18 14:45:00,
2013-06-18 09:50:00,72.0,57.4,30.04,NE,56,6.0,6.0,60,0.00,,,0.00,Wunderground v.1.15,2013-06-18 14:50:00,
2013-06-18 09:55:00,72.5,56.9,30.04,ENE,71,6.0,7.0,58,0.00,,,0.00,Wunderground v.1.15,2013-06-18 14:55:00,
2013-06-18 10:00:00,72.8,57.6,30.04,ENE,76,6.0,6.0,59,0.00,,,0.00,Wunderground v.1.15,2013-06-18 15:00:00,
2013-06-18 10:10:00,73.3,57.6,30.03,ENE,63,6.0,6.0,58,0.00,,,0.00,Wunderground v.1.15,2013-06-18 15:10:00,
2013-06-18 10:15:00,73.7,58.0,30.03,NE,55,7.0,12.0,58,0.00,,,0.00,Wunderground v.1.15,2013-06-18 15:15:00,
2013-06-18 10:20:00,73.0,57.8,30.03,NE,52,10.0,29.0,59,0.00,,,0.00,Wunderground v.1.15,2013-06-18 15:20:00,
2013-06-18 10:25:00,73.0,57.8,30.03,ENE,78,11.0,29.0,59,0.00,,,0.00,Wunderground v.1.15,2013-06-18 15:25:00,
2013-06-18 10:30:00,72.9,59.6,30.03,NE,46,9.0,29.0,63,0.00,,,0.00,Wunderground v.1.15,2013-06-18 15:30:00,
2013-06-18 10:40:00,72.1,59.2,30.02,ENE,70,12.0,12.0,64,0.00,,,0.00,Wunderground v.1.15,2013-06-18 15:40:00,
2013-06-18 10:45:00,72.1,59.2,30.02,East,79,12.0,29.0,64,0.00,,,0.00,Wunderground v.1.15,2013-06-18 15:45:00,
2013-06-18 10:50:00,72.0,59.2,30.02,ENE,62,11.0,29.0,64,0.00,,,0.00,Wunderground v.1.15,2013-06-18 15:50:00,
2013-06-18 10:55:00,71.9,59.1,30.02,ENE,71,11.0,29.0,64,0.00,,,0.00,Wunderground v.1.15,2013-06-18 15:55:00,
2013-06-18 11:00:00,72.1,59.7,30.02,ENE,58,11.0,11.0,65,0.00,,,0.00,Wunderground v.1.15,2013-06-18 16:00:00,
2013-06-18 11:05:00,72.6,59.3,30.02,ENE,78,10.0,29.0,63,0.00,,,0.00,Wunderground v.1.15,2013-06-18 16:05:00,
2013-06-18 11:15:00,73.1,59.3,30.02,East,84,10.0,29.0,62,0.00,,,0.00,Wunderground v.1.15,2013-06-18 16:15:00,
2013-06-18 11:20:00,73.1,58.8,30.02,ENE,62,9.0,29.0,61,0.00,,,0.00,Wunderground v.1.15,2013-06-18 16:20:00,
2013-06-18 11:25:00,73.6,59.3,30.02,East,85,10.0,29.0,61,0.00,,,0.00,Wunderground v.1.15,2013-06-18 16:25:00,
2013-06-18 11:30:00,73.8,60.0,30.02,ENE,69,10.0,29.0,62,0.00,,,0.00,Wunderground v.1.15,2013-06-18 16:30:00,
2013-06-18 11:35:00,73.9,59.1,30.02,East,80,11.0,29.0,60,0.00,,,0.00,Wunderground v.1.15,2013-06-18 16:35:00,
2013-06-18 11:45:00,73.7,59.9,30.02,ENE,72,9.0,29.0,62,0.00,,,0.00,Wunderground v.1.15,2013-06-18 16:45:00,
2013-06-18 11:50:00,73.9,59.6,30.02,ESE,103,9.0,29.0,61,0.00,,,0.00,Wunderground v.1.15,2013-06-18 16:50:00,
2013-06-18 11:55:00,74.3,59.5,30.02,East,90,11.0,29.0,60,0.00,,,0.00,Wunderground v.1.15,2013-06-18 16:55:00,
2013-06-18 12:00:00,75.0,60.2,30.02,East,98,11.0,11.0,60,0.00,,,0.00,Wunderground v.1.15,2013-06-18 17:00:00,
2013-06-18 12:05:00,75.5,58.7,30.02,East,98,10.0,15.0,56,0.00,,,0.00,Wunderground v.1.15,2013-06-18 17:05:00,
2013-06-18 12:10:00,74.7,58.9,30.02,ESE,115,11.0,29.0,58,0.00,,,0.00,Wunderground v.1.15,2013-06-18 17:10:00,
2013-06-18 12:20:00,75.5,60.2,30.02,East,94,11.0,11.0,59,0.00,,,0.00,Wunderground v.1.15,2013-06-18 17:20:00,
2013-06-18 12:25:00,76.7,59.3,30.02,ESE,118,10.0,17.0,55,0.00,,,0.00,Wunderground v.1.15,2013-06-18 17:25:00,
2013-06-18 12:30:00,76.4,59.0,30.02,ESE,119,12.0,29.0,55,0.00,,,0.00,Wunderground v.1.15,2013-06-18 17:30:00,
2013-06-18 12:35:00,76.9,59.0,30.02,ESE,113,14.0,29.0,54,0.00,,,0.00,Wunderground v.1.15,2013-06-18 17:35:00,
2013-06-18 12:40:00,76.2,58.3,30.02,ESE,115,14.0,29.0,54,0.00,,,0.00,Wunderground v.1.15,2013-06-18 17:40:00,
2013-06-18 12:50:00,75.9,59.6,30.02,ESE,113,15.0,29.0,57,0.00,,,0.00,Wunderground v.1.15,2013-06-18 17:50:00,
2013-06-18 12:55:00,76.2,57.8,30.02,East,101,14.0,29.0,53,0.00,,,0.00,Wunderground v.1.15,2013-06-18 17:55:00,
2013-06-18 13:00:00,76.0,59.2,30.02,ESE,107,13.0,29.0,56,0.00,,,0.00,Wunderground v.1.15,2013-06-18 18:00:00,
2013-06-18 13:05:00,76.0,58.7,30.02,ESE,123,13.0,29.0,55,0.00,,,0.00,Wunderground v.1.15,2013-06-18 18:05:00,
2013-06-18 13:10:00,76.7,59.3,30.02,ESE,105,12.0,29.0,55,0.00,,,0.00,Wunderground v.1.15,2013-06-18 18:10:00,
2013-06-18 13:15:00,76.4,59.0,30.02,East,92,11.0,29.0,55,0.00,,,0.00,Wunderground v.1.15,2013-06-18 18:15:00,
2013-06-18 13:25:00,77.6,58.6,30.02,ESE,120,10.0,29.0,52,0.00,,,0.00,Wunderground v.1.15,2013-06-18 18:25:00,
2013-06-18 13:30:00,77.3,58.3,30.02,ESE,109,11.0,29.0,52,0.00,,,0.00,Wunderground v.1.15,2013-06-18 18:30:00,
2013-06-18 13:35:00,76.9,58.5,30.02,East,98,11.0,29.0,53,0.00,,,0.00,Wunderground v.1.15,2013-06-18 18:35:00,
2013-06-18 13:40:00,76.9,57.9,30.02,ESE,107,10.0,29.0,52,0.00,,,0.00,Wunderground v.1.15,2013-06-18 18:40:00,
2013-06-18 13:45:00,76.7,58.3,30.01,ESE,105,11.0,29.0,53,0.00,,,0.00,Wunderground v.1.15,2013-06-18 18:45:00,
2013-06-18 13:50:00,77.1,58.6,30.01,East,86,12.0,12.0,53,0.00,,,0.00,Wunderground v.1.15,2013-06-18 18:50:00,
2013-06-18 13:55:00,77.9,58.3,30.01,ESE,114,11.0,29.0,51,0.00,,,0.00,Wunderground v.1.15,2013-06-18 18:55:00,
2013-06-18 14:00:00,78.1,58.5,30.01,ESE,113,11.0,29.0,51,0.00,,,0.00,Wunderground v.1.15,2013-06-18 19:00:00,
2013-06-18 14:05:00,78.2,58.0,30.01,ESE,107,12.0,29.0,50,0.00,,,0.00,Wunderground v.1.15,2013-06-18 19:05:00,
2013-06-18 14:10:00,78.6,57.8,30.01,ESE,113,12.0,12.0,49,0.00,,,0.00,Wunderground v.1.15,2013-06-18 19:10:00,
2013-06-18 14:15:00,78.7,57.4,30.01,ESE,103,11.0,29.0,48,0.00,,,0.00,Wunderground v.1.15,2013-06-18 19:15:00,
2013-06-18 14:25:00,79.1,57.7,30.00,ESE,107,9.0,29.0,48,0.00,,,0.00,Wunderground v.1.15,2013-06-18 19:25:00,
2013-06-18 14:30:00,79.3,57.3,30.00,ESE,114,9.0,9.0,47,0.00,,,0.00,Wunderground v.1.15,2013-06-18 19:30:00,
2013-06-18 14:35:00,79.3,57.3,30.00,ESE,118,8.0,12.0,47,0.00,,,0.00,Wunderground v.1.15,2013-06-18 19:35:00,
2013-06-18 14:40:00,79.3,57.9,30.00,ENE,71,8.0,8.0,48,0.00,,,0.00,Wunderground v.1.15,2013-06-18 19:40:00,
2013-06-18 14:45:00,79.4,57.4,30.00,ESE,119,10.0,11.0,47,0.00,,,0.00,Wunderground v.1.15,2013-06-18 19:45:00,
2013-06-18 14:50:00,79.9,58.5,30.00,ESE,107,9.0,29.0,48,0.00,,,0.00,Wunderground v.1.15,2013-06-18 19:50:00,
2013-06-18 15:00:00,79.3,57.3,30.00,ESE,103,9.0,9.0,47,0.00,,,0.00,Wunderground v.1.15,2013-06-18 20:00:00,
2013-06-18 15:05:00,79.4,58.0,29.99,East,96,10.0,14.0,48,0.00,,,0.00,Wunderground v.1.15,2013-06-18 20:05:00,
2013-06-18 15:10:00,79.5,57.5,29.99,ESE,105,11.0,11.0,47,0.00,,,0.00,Wunderground v.1.15,2013-06-18 20:10:00,
2013-06-18 15:15:00,79.5,57.5,29.99,ESE,120,10.0,29.0,47,0.00,,,0.00,Wunderground v.1.15,2013-06-18 20:15:00,
2013-06-18 15:20:00,79.3,58.5,29.99,East,100,10.0,29.0,49,0.00,,,0.00,Wunderground v.1.15,2013-06-18 20:20:00,
2013-06-18 15:30:00,79.3,57.9,29.99,East,98,10.0,29.0,48,0.00,,,0.00,Wunderground v.1.15,2013-06-18 20:30:00,
2013-06-18 15:35:00,79.1,59.4,29.99,SE,136,11.0,29.0,51,0.00,,,0.00,Wunderground v.1.15,2013-06-18 20:35:00,
2013-06-18 15:40:00,79.0,58.2,29.99,ESE,105,12.0,12.0,49,0.00,,,0.00,Wunderground v.1.15,2013-06-18 20:40:00,
2013-06-18 15:45:00,78.9,59.2,29.99,ESE,120,11.0,29.0,51,0.00,,,0.00,Wunderground v.1.15,2013-06-18 20:45:00,
2013-06-18 15:50:00,78.8,59.1,29.98,ESE,121,11.0,29.0,51,0.00,,,0.00,Wunderground v.1.15,2013-06-18 20:50:00,
2013-06-18 15:55:00,78.9,58.7,29.98,ESE,121,12.0,29.0,50,0.00,,,0.00,Wunderground v.1.15,2013-06-18 20:55:00,
2013-06-18 16:05:00,79.4,59.1,29.97,ESE,103,12.0,29.0,50,0.00,,,0.00,Wunderground v.1.15,2013-06-18 21:05:00,
2013-06-18 16:10:00,79.9,59.0,29.97,ESE,117,10.0,10.0,49,0.00,,,0.00,Wunderground v.1.15,2013-06-18 21:10:00,
2013-06-18 16:15:00,80.6,59.7,29.97,ESE,122,11.0,11.0,49,0.00,,,0.00,Wunderground v.1.15,2013-06-18 21:15:00,
2013-06-18 16:20:00,80.3,58.8,29.97,SE,132,13.0,13.0,48,0.00,,,0.00,Wunderground v.1.15,2013-06-18 21:20:00,
2013-06-18 16:25:00,79.8,58.4,29.97,East,87,13.0,29.0,48,0.00,,,0.00,Wunderground v.1.15,2013-06-18 21:25:00,
2013-06-18 16:35:00,79.8,58.9,29.98,ESE,116,11.0,13.0,49,0.00,,,0.00,Wunderground v.1.15,2013-06-18 21:35:00,
2013-06-18 16:40:00,79.6,59.3,29.97,SE,132,13.0,13.0,50,0.00,,,0.00,Wunderground v.1.15,2013-06-18 21:40:00,
2013-06-18 16:45:00,80.0,59.7,29.97,SE,134,13.0,15.0,50,0.00,,,0.00,Wunderground v.1.15,2013-06-18 21:45:00,
2013-06-18 16:50:00,80.0,60.2,29.97,SE,129,13.0,29.0,51,0.00,,,0.00,Wunderground v.1.15,2013-06-18 21:50:00,
2013-06-18 16:55:00,79.9,59.0,29.97,ESE,113,14.0,29.0,49,0.00,,,0.00,Wunderground v.1.15,2013-06-18 21:55:00,
2013-06-18 17:00:00,80.2,59.9,29.97,ESE,114,13.0,29.0,50,0.00,,,0.00,Wunderground v.1.15,2013-06-18 22:00:00,
2013-06-18 17:10:00,79.8,58.9,29.97,ESE,115,13.0,29.0,49,0.00,,,0.00,Wunderground v.1.15,2013-06-18 22:10:00,
2013-06-18 17:15:00,80.1,59.2,29.97,SE,127,12.0,29.0,49,0.00,,,0.00,Wunderground v.1.15,2013-06-18 22:15:00,
2013-06-18 17:20:00,80.2,59.3,29.97,ESE,109,12.0,12.0,49,0.00,,,0.00,Wunderground v.1.15,2013-06-18 22:20:00,
2013-06-18 17:25:00,80.4,59.5,29.97,SSE,148,12.0,29.0,49,0.00,,,0.00,Wunderground v.1.15,2013-06-18 22:25:00,
2013-06-18 17:30:00,80.3,59.4,29.97,SE,136,12.0,29.0,49,0.00,,,0.00,Wunderground v.1.15,2013-06-18 22:30:00,
2013-06-18 17:35:00,80.2,59.3,29.96,ESE,109,12.0,29.0,49,0.00,,,0.00,Wunderground v.1.15,2013-06-18 22:35:00,
2013-06-18 17:40:00,79.9,59.6,29.96,ESE,120,11.0,29.0,50,0.00,,,0.00,Wunderground v.1.15,2013-06-18 22:40:00,
2013-06-18 17:45:00,79.9,59.0,29.96,East,98,10.0,29.0,49,0.00,,,0.00,Wunderground v.1.15,2013-06-18 22:45:00,
2013-06-18 17:50:00,80.0,59.7,29.96,ESE,107,11.0,11.0,50,0.00,,,0.00,Wunderground v.1.15,2013-06-18 22:50:00,
2013-06-18 17:55:00,80.0,59.7,29.96,SE,128,11.0,15.0,50,0.00,,,0.00,Wunderground v.1.15,2013-06-18 22:55:00,
2013-06-18 18:00:00,79.8,59.5,29.96,ESE,117,12.0,12.0,50,0.00,,,0.00,Wunderground v.1.15,2013-06-18 23:00:00,
2013-06-18 18:10:00,79.6,58.8,29.96,ESE,105,12.0,29.0,49,0.00,,,0.00,Wunderground v.1.15,2013-06-18 23:10:00,
2013-06-18 18:15:00,79.6,59.3,29.95,SE,133,12.0,29.0,50,0.00,,,0.00,Wunderground v.1.15,2013-06-18 23:15:00,
2013-06-18 18:20:00,79.8,59.5,29.95,ESE,121,12.0,29.0,50,0.00,,,0.00,Wunderground v.1.15,2013-06-18 23:20:00,
2013-06-18 18:25:00,79.7,59.4,29.95,ESE,110,12.0,29.0,50,0.00,,,0.00,Wunderground v.1.15,2013-06-18 23:25:00,
2013-06-18 18:30:00,79.5,59.2,29.95,ESE,118,12.0,12.0,50,0.00,,,0.00,Wunderground v.1.15,2013-06-18 23:30:00,
2013-06-18 18:35:00,79.5,59.2,29.95,ESE,115,13.0,15.0,50,0.00,,,0.00,Wunderground v.1.15,2013-06-18 23:35:00,
2013-06-18 18:45:00,79.5,59.2,29.94,ESE,115,13.0,14.0,50,0.00,,,0.00,Wunderground v.1.15,2013-06-18 23:45:00,
2013-06-18 18:50:00,79.4,59.1,29.95,ESE,105,12.0,12.0,50,0.00,,,0.00,Wunderground v.1.15,2013-06-18 23:50:00,
2013-06-18 18:55:00,79.4,59.1,29.95,ESE,113,12.0,16.0,50,0.00,,,0.00,Wunderground v.1.15,2013-06-18 23:55:00,
2013-06-18 19:00:00,79.4,59.1,29.94,ESE,104,12.0,12.0,50,0.00,,,0.00,Wunderground v.1.15,2013-06-19 00:00:00,
2013-06-18 19:05:00,79.3,59.0,29.94,ESE,110,12.0,29.0,50,0.00,,,0.00,Wunderground v.1.15,2013-06-19 00:05:00,
2013-06-18 19:15:00,79.2,59.0,29.94,ESE,105,13.0,29.0,50,0.00,,,0.00,Wunderground v.1.15,2013-06-19 00:15:00,
2013-06-18 19:20:00,79.1,59.4,29.95,ESE,110,13.0,29.0,51,0.00,,,0.00,Wunderground v.1.15,2013-06-19 00:20:00,
2013-06-18 19:25:00,79.0,59.3,29.95,ESE,112,14.0,29.0,51,0.00,,,0.00,Wunderground v.1.15,2013-06-19 00:25:00,
2013-06-18 19:30:00,78.8,59.7,29.95,ESE,115,15.0,29.0,52,0.00,,,0.00,Wunderground v.1.15,2013-06-19 00:30:00,
2013-06-18 19:35:00,78.8,59.7,29.95,ESE,121,15.0,29.0,52,0.00,,,0.00,Wunderground v.1.15,2013-06-19 00:35:00,
2013-06-18 19:40:00,78.6,60.0,29.95,ESE,117,14.0,14.0,53,0.00,,,0.00,Wunderground v.1.15,2013-06-19 00:40:00,
2013-06-18 19:50:00,78.5,61.0,29.94,SE,134,12.0,29.0,55,0.00,,,0.00,Wunderground v.1.15,2013-06-19 00:50:00,
2013-06-18 19:55:00,78.4,61.4,29.94,SE,125,12.0,29.0,56,0.00,,,0.00,Wunderground v.1.15,2013-06-19 00:55:00,
2013-06-18 20:00:00,78.4,61.4,29.94,ESE,119,11.0,29.0,56,0.00,,,0.00,Wunderground v.1.15,2013-06-19 01:00:00,
2013-06-18 20:05:00,78.2,61.7,29.94,SE,126,11.0,29.0,57,0.00,,,0.00,Wunderground v.1.15,2013-06-19 01:05:00,
2013-06-18 20:10:00,78.0,61.5,29.94,SE,125,12.0,12.0,57,0.00,,,0.00,Wunderground v.1.15,2013-06-19 01:10:00,
2013-06-18 20:20:00,77.5,61.1,29.94,ESE,122,11.0,29.0,57,0.00,,,0.00,Wunderground v.1.15,2013-06-19 01:20:00,
2013-06-18 20:25:00,77.4,61.5,29.94,SE,126,11.0,29.0,58,0.00,,,0.00,Wunderground v.1.15,2013-06-19 01:25:00,
2013-06-18 20:30:00,77.0,61.6,29.94,ESE,122,11.0,11.0,59,0.00,,,0.00,Wunderground v.1.15,2013-06-19 01:30:00,
2013-06-18 20:35:00,76.9,61.5,29.94,East,96,10.0,29.0,59,0.00,,,0.00,Wunderground v.1.15,2013-06-19 01:35:00,
2013-06-18 20:40:00,76.5,61.6,29.94,ESE,118,10.0,10.0,60,0.00,,,0.00,Wunderground v.1.15,2013-06-19 01:40:00,
2013-06-18 20:45:00,76.2,61.3,29.94,ESE,119,10.0,29.0,60,0.00,,,0.00,Wunderground v.1.15,2013-06-19 01:45:00,
2013-06-18 20:55:00,75.4,61.0,29.94,ESE,122,9.0,29.0,61,0.00,,,0.00,Wunderground v.1.15,2013-06-19 01:55:00,
2013-06-18 21:00:00,74.9,61.0,29.94,ESE,117,9.0,29.0,62,0.00,,,0.00,Wunderground v.1.15,2013-06-19 02:00:00,
2013-06-18 21:05:00,74.6,60.7,29.94,ESE,120,8.0,29.0,62,0.00,,,0.00,Wunderground v.1.15,2013-06-19 02:05:00,
2013-06-18 21:10:00,74.3,60.9,29.94,ESE,117,8.0,8.0,63,0.00,,,0.00,Wunderground v.1.15,2013-06-19 02:10:00,
2013-06-18 21:15:00,73.8,60.9,29.94,ESE,119,7.0,29.0,64,0.00,,,0.00,Wunderground v.1.15,2013-06-19 02:15:00,
2013-06-18 21:25:00,72.7,60.7,29.95,North,360,6.0,29.0,66,0.00,,,0.00,Wunderground v.1.15,2013-06-19 02:25:00,
2013-06-18 21:30:00,72.3,60.7,29.96,ESE,119,6.0,6.0,67,0.00,,,0.00,Wunderground v.1.15,2013-06-19 02:30:00,
2013-06-18 21:35:00,72.0,60.4,29.96,ESE,119,6.0,8.0,67,0.00,,,0.00,Wunderground v.1.15,2013-06-19 02:35:00,
2013-06-18 21:40:00,71.8,60.7,29.96,ESE,120,6.0,29.0,68,0.00,,,0.00,Wunderground v.1.15,2013-06-19 02:40:00,
2013-06-18 21:45:00,71.4,60.7,29.97,ESE,121,6.0,29.0,69,0.00,,,0.00,Wunderground v.1.15,2013-06-19 02:45:00,
2013-06-18 21:50:00,71.2,60.5,29.97,SE,130,6.0,29.0,69,0.00,,,0.00,Wunderground v.1.15,2013-06-19 02:50:00,
2013-06-18 22:00:00,70.8,60.5,29.97,SE,127,7.0,7.0,70,0.00,,,0.00,Wunderground v.1.15,2013-06-19 03:00:00,
2013-06-18 22:05:00,70.5,60.6,29.97,SE,126,7.0,29.0,71,0.00,,,0.00,Wunderground v.1.15,2013-06-19 03:05:00,
2013-06-18 22:10:00,70.1,60.3,29.96,SE,126,6.0,29.0,71,0.00,,,0.00,Wunderground v.1.15,2013-06-19 03:10:00,
2013-06-18 22:15:00,69.8,60.4,29.97,SE,126,6.0,29.0,72,0.00,,,0.00,Wunderground v.1.15,2013-06-19 03:15:00,
2013-06-18 22:20:00,69.4,60.4,29.97,SE,126,6.0,6.0,73,0.00,,,0.00,Wunderground v.1.15,2013-06-19 03:20:00,
2013-06-18 22:30:00,68.8,60.2,29.97,SE,126,5.0,29.0,74,0.00,,,0.00,Wunderground v.1.15,2013-06-19 03:30:00,
2013-06-18 22:35:00,68.8,60.2,29.97,SE,126,5.0,29.0,74,0.00,,,0.00,Wunderground v.1.15,2013-06-19 03:35:00,
2013-06-18 22:40:00,68.8,60.6,29.97,SE,126,5.0,29.0,75,0.00,,,0.00,Wunderground v.1.15,2013-06-19 03:40:00,
2013-06-18 22:45:00,68.7,60.5,29.97,SE,126,6.0,29.0,75,0.00,,,0.00,Wunderground v.1.15,2013-06-19 03:45:00,
2013-06-18 22:50:00,68.4,60.2,29.97,SE,126,5.0,29.0,75,0.00,,,0.00,Wunderground v.1.15,2013-06-19 03:50:00,
2013-06-18 22:55:00,68.2,60.3,29.97,SE,125,5.0,29.0,76,0.00,,,0.00,Wunderground v.1.15,2013-06-19 03:55:00,
2013-06-18 23:00:00,68.0,60.2,29.96,ESE,113,5.0,29.0,76,0.00,,,0.00,Wunderground v.1.15,2013-06-19 04:00:00,
2013-06-18 23:05:00,67.8,60.3,29.96,ESE,113,5.0,29.0,77,0.00,,,0.00,Wunderground v.1.15,2013-06-19 04:05:00,
2013-06-18 23:09:00,67.6,60.1,29.97,ESE,113,5.0,5.0,77,0.00,,,0.00,Wunderground v.1.15,2013-06-19 04:09:00,
2013-06-18 23:14:00,67.2,60.1,29.97,ESE,113,4.0,29.0,78,0.00,,,0.00,Wunderground v.1.15,2013-06-19 04:14:00,
2013-06-18 23:19:00,67.0,60.3,29.98,ESE,114,5.0,29.0,79,0.00,,,0.00,Wunderground v.1.15,2013-06-19 04:19:00,
2013-06-18 23:24:00,67.0,60.3,29.98,SE,133,5.0,29.0,79,0.00,,,0.00,Wunderground v.1.15,2013-06-19 04:24:00,
2013-06-18 23:30:00,67.2,60.5,29.98,SE,134,6.0,6.0,79,0.00,,,0.00,Wunderground v.1.15,2013-06-19 04:30:00,
2013-06-18 23:35:00,67.2,60.5,29.98,SE,141,6.0,29.0,79,0.00,,,0.00,Wunderground v.1.15,2013-06-19 04:35:00,
2013-06-18 23:40:00,67.1,60.4,29.98,SE,141,6.0,6.0,79,0.00,,,0.00,Wunderground v.1.15,2013-06-19 04:40:00,
2013-06-18 23:45:00,66.9,60.2,29.97,SE,141,5.0,29.0,79,0.00,,,0.00,Wunderground v.1.15,2013-06-19 04:45:00,
2013-06-18 23:50:00,66.7,60.3,29.98,SE,141,5.0,29.0,80,0.00,,,0.00,Wunderground v.1.15,2013-06-19 04:50:00,
2013-06-18 23:55:00,66.5,60.1,29.98,SE,141,4.0,29.0,80,0.00,,,0.00,Wunderground v.1.15,2013-06-19 04:55:00,